FW6636 Weather Reports


time (UTC)temp
C
wind
direction
speed
KPH
gust
KPH
rain 1hr
cm
rain 24hr
cm
rain mn
cm
humidity
%
barometer
mb
20260506015553 20 0 3.2 11.3 0.00 0.25 0.25 45 1009.8
20260506015052 20 200 3.2 11.3 0.00 0.25 0.25 44 1009.7
20260506014552 21 200 4.8 9.7 0.00 0.25 0.25 44 1009.6
20260506014051 21 190 3.2 12.9 0.00 0.25 0.25 46 1009.6
20260506013548 21 201 6.4 14.5 0.00 0.25 0.25 42 1009.6
20260506013050 21 229 4.8 14.5 0.00 0.25 0.25 42 1009.5
20260506012551 21 208 6.4 16.1 0.00 0.25 0.25 42 1009.4
20260506012048 21 212 4.8 16.1 0.00 0.25 0.25 43 1009.3
20260506011553 21 199 8.0 17.7 0.00 0.25 0.25 43 1009.3
20260506011048 21 202 9.7 17.7 0.00 0.25 0.25 43 1009.2
20260506010548 22 189 9.7 20.9 0.00 0.25 0.25 42 1009.1
20260506010058 22 199 11.3 20.9 0.00 0.25 0.25 41 1009.1
20260506005548 22 194 11.3 20.9 0.00 0.25 0.25 41 1009.0
20260506005049 22 179 11.3 22.5 0.00 0.25 0.25 41 1008.8
20260506004600 22 201 11.3 22.5 0.00 0.25 0.25 42 1008.8
20260506004049 22 188 12.9 22.5 0.00 0.25 0.25 41 1008.9
20260506003549 22 155 11.3 19.3 0.00 0.25 0.25 42 1008.8
20260506003058 22 165 11.3 22.5 0.00 0.25 0.25 43 1008.8
20260506002548 22 169 12.9 25.7 0.00 0.25 0.25 43 1008.8
20260506002051 22 173 12.9 25.7 0.00 0.25 0.25 40 1008.8
20260506001608 22 181 9.7 17.7 0.00 0.25 0.25 40 1008.8
20260506001052 22 193 8.0 19.3 0.00 0.25 0.25 41 1008.7
20260506000550 22 179 9.7 19.3 0.00 0.25 0.25 40 1008.6
20260506000125 22 214 12.9 19.3 0.00 0.25 0.25 39 1008.6
20260505235548 23 187 9.7 24.1 0.00 0.25 0.25 39 1008.5
20260505235051 23 201 12.9 29.0 0.00 0.25 0.25 39 1008.4
20260505234617 23 178 16.1 29.0 0.00 0.25 0.25 39 1008.5
20260505234052 23 177 9.7 22.5 0.00 0.25 0.25 39 1008.5
20260505233549 23 169 12.9 32.2 0.00 0.25 0.25 38 1008.3
20260505233108 23 219 14.5 32.2 0.00 0.25 0.25 39 1008.5
20260505232550 23 222 14.5 25.7 0.00 0.25 0.25 38 1008.2
20260505232051 23 202 14.5 32.2 0.00 0.25 0.25 39 1008.3
20260505231607 23 183 12.9 32.2 0.00 0.25 0.25 38 1008.2
20260505231049 23 211 12.9 37.0 0.00 0.25 0.25 37 1008.3
20260505230549 24 175 17.7 37.0 0.00 0.25 0.25 38 1008.3
20260505230100 24 192 16.1 29.0 0.00 0.25 0.25 38 1008.1
20260505225549 24 136 16.1 32.2 0.00 0.25 0.25 37 1008.2
20260505225048 24 194 17.7 32.2 0.00 0.25 0.25 37 1008.2
20260505224614 24 172 17.7 30.6 0.00 0.25 0.25 37 1008.2
20260505224054 24 188 14.5 29.0 0.00 0.25 0.25 37 1008.1
20260505223551 25 179 11.3 29.0 0.00 0.25 0.25 36 1007.9
20260505223104 25 204 14.5 24.1 0.00 0.25 0.25 35 1007.9
20260505222548 25 188 11.3 32.2 0.00 0.25 0.25 33 1007.9
20260505222052 25 219 17.7 32.2 0.00 0.25 0.25 33 1007.8
20260505221603 25 188 16.1 25.7 0.00 0.25 0.25 33 1007.8
20260505221049 25 233 11.3 32.2 0.00 0.25 0.25 33 1007.9
20260505220548 25 192 11.3 32.2 0.00 0.25 0.25 34 1007.8
20260505220106 25 198 12.9 29.0 0.00 0.25 0.25 33 1007.9
20260505215548 25 189 12.9 24.1 0.00 0.25 0.25 32 1007.7
20260505215049 25 186 9.7 19.3 0.00 0.25 0.25 34 1007.8
20260505214622 25 209 9.7 29.0 0.00 0.25 0.25 36 1007.8
20260505214049 25 229 12.9 29.0 0.00 0.25 0.25 39 1007.8
20260505213550 25 181 17.7 25.7 0.00 0.25 0.25 37 1007.8
20260505213052 25 217 12.9 29.0 0.00 0.25 0.25 37 1007.8
20260505212548 25 199 17.7 29.0 0.00 0.25 0.25 36 1007.8
20260505212049 24 169 12.9 38.6 0.00 0.25 0.25 40 1007.7
20260505211626 24 204 14.5 38.6 0.00 0.25 0.25 38 1007.6
20260505211054 25 177 24.1 38.6 0.00 0.25 0.25 38 1007.7
20260505210549 25 179 27.4 38.6 0.00 0.25 0.25 40 1007.5
20260505210053 25 240 19.3 45.1 0.00 0.25 0.25 40 1007.8
20260505205549 25 202 20.9 45.1 0.00 0.25 0.25 37 1007.5
20260505205050 25 175 16.1 40.2 0.00 0.25 0.25 37 1007.8
20260505204603 25 188 16.1 41.8 0.00 0.25 0.25 37 1007.6
20260505204049 25 187 22.5 54.7 0.00 0.25 0.25 37 1007.6
20260505203549 26 175 22.5 54.7 0.00 0.25 0.25 38 1007.6
20260505203055 26 183 17.7 40.2 0.00 0.25 0.25 40 1007.6
20260505202548 26 194 17.7 40.2 0.00 0.25 0.25 39 1007.6
20260505202049 26 216 20.9 49.9 0.00 0.25 0.25 35 1007.4
20260505201555 26 200 22.5 49.9 0.00 0.25 0.25 38 1007.4
20260505201049 26 202 20.9 38.6 0.00 0.25 0.25 36 1007.5
20260505200548 26 211 20.9 56.3 0.00 0.25 0.25 40 1007.5
20260505200052 26 182 22.5 56.3 0.00 0.25 0.25 32 1007.6
20260505195548 26 183 27.4 51.5 0.00 0.25 0.25 34 1007.5
20260505195050 26 186 22.5 51.5 0.00 0.25 0.25 32 1007.7
20260505194557 26 154 17.7 45.1 0.00 0.25 0.25 34 1007.5
20260505194053 26 200 24.1 46.7 0.00 0.25 0.25 30 1007.8
20260505193552 26 188 19.3 46.7 0.00 0.25 0.25 33 1007.9
20260505193053 25 217 20.9 46.7 0.00 0.25 0.25 32 1007.9
20260505192548 25 242 16.1 40.2 0.00 0.25 0.25 33 1008.0
20260505192049 26 205 12.9 45.1 0.00 0.25 0.25 33 1008.0
20260505191600 26 267 17.7 45.1 0.00 0.25 0.25 31 1008.0
20260505191050 26 244 20.9 40.2 0.00 0.25 0.25 31 1008.2
20260505190552 26 237 16.1 32.2 0.00 0.25 0.25 34 1008.2
20260505190058 26 206 16.1 35.4 0.00 0.25 0.25 35 1008.3
20260505185549 26 222 14.5 37.0 0.00 0.25 0.25 31 1008.2
20260505185049 26 195 17.7 37.0 0.00 0.25 0.25 33 1008.2
20260505184554 26 177 20.9 43.5 0.00 0.25 0.25 34 1008.6
20260505184130 26 241 17.7 43.5 0.00 0.25 0.25 32 1008.6
20260505183553 26 248 20.9 38.6 0.00 0.25 0.25 34 1008.6
20260505183058 26 225 22.5 40.2 0.00 0.25 0.25 35 1008.6
20260505182553 26 178 16.1 40.2 0.00 0.25 0.25 30 1008.6
20260505182053 26 198 16.1 33.8 0.00 0.25 0.25 37 1008.8
20260505181638 26 242 19.3 35.4 0.00 0.25 0.25 38 1008.7
20260505181055 26 200 17.7 38.6 0.00 0.25 0.25 32 1008.8
20260505180553 26 208 17.7 53.1 0.00 0.25 0.25 35 1008.8
20260505180103 26 251 20.9 53.1 0.00 0.25 0.25 35 1008.9
20260505175553 26 234 20.9 57.9 0.00 0.25 0.25 38 1008.8
20260505175052 25 188 22.5 57.9 0.00 0.25 0.25 38 1008.9
20260505174556 25 205 24.1 49.9 0.00 0.25 0.25 36 1009.1
20260505174053 25 169 25.7 51.5 0.00 0.25 0.25 39 1009.0
20260505173552 25 190 25.7 51.5 0.00 0.25 0.25 38 1009.2
20260505173055 25 206 29.0 46.7 0.00 0.25 0.25 37 1009.2
20260505172552 25 211 14.5 48.3 0.00 0.25 0.25 41 1009.2
20260505172053 25 253 20.9 48.3 0.00 0.25 0.25 39 1009.0
20260505171601 25 208 19.3 46.7 0.00 0.25 0.25 39 1009.3
20260505171053 24 278 11.3 24.1 0.00 0.25 0.25 45 1009.4
20260505170553 24 240 8.0 24.1 0.00 0.25 0.25 47 1009.3
20260505170055 24 268 9.7 24.1 0.00 0.25 0.25 43 1009.4
20260505165552 24 233 11.3 24.1 0.00 0.25 0.25 43 1009.3
20260505165052 25 262 14.5 24.1 0.00 0.25 0.25 43 1009.5
20260505164555 25 201 12.9 27.4 0.00 0.25 0.25 43 1009.6
20260505164052 25 252 12.9 27.4 0.00 0.25 0.25 43 1009.6
20260505163555 25 289 11.3 25.7 0.00 0.25 0.25 42 1009.7
20260505163053 25 244 8.0 30.6 0.00 0.25 0.25 49 1009.9
20260505162553 24 208 16.1 30.6 0.00 0.25 0.25 45 1009.9
20260505162052 24 201 14.5 32.2 0.00 0.25 0.25 46 1009.8
20260505161555 24 222 14.5 32.2 0.00 0.25 0.25 44 1010.1
20260505161053 24 217 8.0 27.4 0.00 0.25 0.25 49 1010.1
20260505160553 24 234 9.7 27.4 0.00 0.25 0.25 46 1010.1
20260505153058 23 190 12.9 24.1 0.00 0.25 0.25 47 1010.4
20260505152552 23 247 14.5 24.1 0.00 0.25 0.25 50 1010.4
20260505152053 23 196 11.3 24.1 0.00 0.25 0.25 49 1010.4
20260505151559 23 220 11.3 22.5 0.00 0.25 0.25 49 1010.4
20260505151057 22 191 8.0 20.9 0.00 0.25 0.25 53 1010.5
20260505150552 22 198 9.7 20.9 0.00 0.25 0.25 51 1010.6
20260505140552 20 200 6.4 17.7 0.00 0.25 0.25 63 1011.0
20260505124557 16 0 0.0 0.0 0.00 0.25 0.25 77 1011.3
20260505124054 16 0 0.0 0.0 0.00 0.25 0.25 77 1011.1
20260505123552 16 0 0.0 0.0 0.00 0.25 0.25 78 1011.1
20260505123101 16 0 0.0 0.0 0.00 0.25 0.25 79 1011.0
20260505122552 15 0 0.0 0.0 0.00 0.25 0.25 77 1011.0
20260505122053 15 0 0.0 0.0 0.00 0.25 0.25 79 1010.9
20260505121555 15 0 0.0 0.0 0.00 0.25 0.25 83 1011.0
20260505121052 15 0 0.0 0.0 0.00 0.25 0.25 87 1011.1
20260505120554 14 0 0.0 0.0 0.00 0.25 0.25 88 1011.2
20260505120111 14 0 0.0 0.0 0.00 0.25 0.25 89 1011.0
20260505115551 14 0 0.0 0.0 0.00 0.25 0.25 91 1011.0
20260505115054 13 0 0.0 0.0 0.00 0.25 0.25 92 1011.0
20260505114557 12 0 0.0 0.0 0.00 0.25 0.25 91 1011.0
20260505114054 12 0 0.0 0.0 0.00 0.25 0.25 91 1011.1
20260505113555 12 0 0.0 0.0 0.00 0.25 0.25 92 1011.0
20260505113055 12 0 0.0 0.0 0.00 0.25 0.25 92 1010.9
20260505112552 11 0 0.0 0.0 0.00 0.25 0.25 91 1011.0
20260505112052 11 0 0.0 0.0 0.00 0.25 0.25 92 1010.8
20260505111557 11 0 0.0 0.0 0.00 0.25 0.25 92 1010.8
20260505111052 11 0 0.0 0.0 0.00 0.25 0.25 92 1010.6
20260505110555 11 0 0.0 0.0 0.00 0.25 0.25 92 1010.6
20260505110112 10 0 0.0 0.0 0.00 0.25 0.25 92 1010.6
20260505102104 9 0 0.0 3.2 0.00 0.25 0.25 91 1010.4
20260505101639 9 0 0.0 4.8 0.00 0.25 0.25 91 1010.6
20260505101122 9 0 0.0 6.4 0.00 0.25 0.25 90 1010.4
20260505100553 9 303 3.2 6.4 0.00 0.25 0.25 91 1010.4
20260505100055 9 0 0.0 3.2 0.00 0.25 0.25 90 1010.3
20260505095553 10 0 0.0 3.2 0.00 0.25 0.25 90 1010.3
20260505095053 10 0 0.0 1.6 0.00 0.25 0.25 91 1010.3
20260505094557 10 0 0.0 3.2 0.03 0.25 0.25 90 1010.1
20260505094054 10 0 0.0 4.8 0.05 0.25 0.25 90 1010.2
20260505093552 10 0 0.0 4.8 0.10 0.25 0.25 90 1010.0
20260505093056 10 0 1.6 6.4 0.13 0.25 0.25 89 1010.0
20260505092553 10 0 3.2 6.4 0.13 0.25 0.25 89 1010.0
20260505092053 10 0 0.0 0.0 0.23 0.25 0.25 89 1009.9
20260505091556 10 0 0.0 0.0 0.25 0.25 0.25 89 1010.0
20260505091058 10 0 0.0 4.8 0.25 0.25 0.25 89 1009.9
20260505090553 10 0 0.0 4.8 0.25 0.25 0.25 88 1010.0
20260505090050 10 0 1.6 16.1 0.25 0.25 0.25 88 1010.1
20260505085553 10 321 0.0 16.1 0.25 0.25 0.25 88 1009.9
20260505085053 10 320 1.6 12.9 0.25 0.25 0.25 87 1010.0
20260505084601 10 100 1.6 9.7 0.23 0.23 0.23 86 1009.9
20260505084056 10 95 0.0 6.4 0.20 0.20 0.20 85 1010.2
20260505083552 11 206 3.2 6.4 0.15 0.15 0.15 86 1010.8
20260505083108 11 0 0.0 8.0 0.13 0.13 0.13 84 1010.9
20260505082556 11 306 0.0 14.5 0.13 0.13 0.13 79 1010.9
20260505082049 11 307 3.2 14.5 0.03 0.03 0.03 76 1010.9
20260505081554 12 304 4.8 12.9 0.00 0.00 0.00 75 1010.8
20260505081053 12 306 3.2 8.0 0.00 0.00 0.00 73 1010.6
20260505080553 12 269 3.2 4.8 0.00 0.00 0.00 70 1010.4
20260505080105 12 0 0.0 1.6 0.00 0.00 0.00 68 1010.3
20260505075551 12 0 0.0 3.2 0.00 0.00 0.00 68 1010.1
20260505075055 12 0 0.0 3.2 0.00 0.00 0.00 68 1010.0
20260505074555 12 223 0.0 3.2 0.00 0.00 0.00 67 1010.0
20260505074053 12 0 0.0 1.6 0.00 0.00 0.00 66 1009.9
20260505073552 13 0 0.0 1.6 0.00 0.00 0.00 65 1009.9
20260505073101 13 0 0.0 0.0 0.00 0.00 0.00 66 1009.9
20260505072552 13 0 0.0 0.0 0.00 0.00 0.00 66 1009.9
20260505072052 13 0 0.0 0.0 0.00 0.00 0.00 66 1009.9
20260505071554 13 0 0.0 0.0 0.00 0.00 0.00 66 1009.9
20260505071053 13 0 0.0 0.0 0.00 0.00 0.00 67 1009.9
20260505070553 13 0 0.0 0.0 0.00 0.00 0.00 65 1010.0
20260505070106 13 0 0.0 0.0 0.00 0.00 0.00 64 1010.1
20260505065553 13 0 0.0 0.0 0.00 0.00 0.00 65 1010.0
20260505065052 13 0 0.0 0.0 0.00 0.00 0.00 65 1010.1
20260505064648 13 0 0.0 0.0 0.00 0.00 0.00 65 1010.1
20260505064049 13 0 0.0 0.0 0.00 0.00 0.00 64 1010.1
20260505063549 13 0 0.0 0.0 0.00 0.00 0.00 64 1010.0
20260505063053 13 0 0.0 0.0 0.00 0.00 0.00 64 1010.0
20260505062552 13 0 0.0 0.0 0.00 0.00 0.00 64 1010.1
20260505062053 13 0 0.0 3.2 0.00 0.00 0.00 65 1010.1
20260505061557 13 0 0.0 3.2 0.00 0.00 0.00 65 1010.1
20260505061055 14 224 1.6 3.2 0.00 0.00 0.00 61 1010.3
20260505060553 15 223 1.6 4.8 0.00 0.00 0.00 58 1010.2
20260505060101 15 0 0.0 4.8 0.00 0.00 0.00 61 1010.3
20260505055553 15 224 0.0 4.8 0.00 0.00 0.00 56 1010.3
20260505055053 15 0 0.0 8.0 0.00 0.00 0.00 56 1010.3
20260505054601 15 217 1.6 11.3 0.00 0.00 0.00 56 1010.3
20260505054052 15 206 4.8 12.9 0.00 0.00 0.00 56 1010.2
20260505053552 15 198 4.8 12.9 0.00 0.00 0.00 55 1010.2
20260505053058 15 233 6.4 12.9 0.00 0.00 0.00 55 1010.2
20260505052552 16 217 8.0 16.1 0.00 0.00 0.00 55 1010.2
20260505052052 16 200 6.4 16.1 0.00 0.00 0.00 53 1010.2
20260505051558 16 229 8.0 16.1 0.00 0.00 0.00 53 1010.2
20260505051053 16 206 8.0 17.7 0.00 0.00 0.00 55 1010.1
20260505050553 16 210 9.7 17.7 0.00 0.00 0.00 53 1010.1
20260505041601 15 0 0.0 8.0 0.00 0.00 0.00 53 1010.0
20260505041053 15 245 3.2 8.0 0.00 0.00 0.00 53 1010.0
20260505040553 14 249 1.6 4.8 0.00 0.00 0.00 53 1010.0
20260505035549 13 251 1.6 3.2 0.00 0.00 0.00 56 1010.0
20260505035052 13 251 0.0 3.2 0.00 0.00 0.00 55 1009.8
20260505034609 13 0 0.0 3.2 0.00 0.00 0.00 56 1010.0
20260505034052 14 250 0.0 3.2 0.00 0.00 0.00 56 1010.0
20260505033549 14 0 0.0 6.4 0.00 0.00 0.00 55 1009.9
20260505033056 14 0 1.6 6.4 0.00 0.00 0.00 55 1010.0
20260505032552 14 255 1.6 3.2 0.00 0.00 0.00 55 1009.9
20260505032052 15 300 0.0 3.2 0.00 0.00 0.00 55 1009.9
20260505031552 15 0 0.0 6.4 0.00 0.00 0.00 52 1010.0
20260505031051 15 0 1.6 9.7 0.00 0.00 0.00 52 1010.0
20260505030556 15 215 3.2 9.7 0.00 0.00 0.00 53 1010.2
20260505030104 15 223 3.2 9.7 0.00 0.00 0.00 53 1010.1
20260505025550 15 0 1.6 9.7 0.00 0.00 0.00 55 1010.1
20260505025053 15 0 3.2 14.5 0.00 0.00 0.00 53 1010.1
20260505024607 15 206 3.2 14.5 0.00 0.00 0.00 54 1010.1
20260505024052 15 171 6.4 12.9 0.00 0.00 0.00 54 1010.1
20260505023552 15 177 4.8 12.9 0.00 0.00 0.00 53 1010.2
20260505023054 15 190 4.8 14.5 0.00 0.00 0.00 53 1010.4
20260505022552 16 175 4.8 14.5 0.00 0.00 0.00 50 1010.3
20260505022052 16 186 4.8 14.5 0.00 0.00 0.00 50 1010.3
20260505021554 16 196 3.2 9.7 0.00 0.00 0.00 50 1010.6
20260505021052 16 223 3.2 12.9 0.00 0.00 0.00 48 1010.4
20260505020552 16 223 1.6 14.5 0.00 0.00 0.00 48 1010.4
20260505020106 16 226 6.4 14.5 0.00 0.00 0.00 48 1010.6